Skip Page Navigation
NASA JPL Caltech
NASA Logo - Jet Propulsion Laboratory + View the NASA Portal
+ Center for Near-Earth Object Studies
JPL Home Earth Solar System Stars & Galaxies Technology
JPL Solar System Dynamics
BODIES ORBITS EPHEMERIDES TOOLS PHYSICAL DATA DISCOVERY FAQ SITE MAP
JPL Small-Body Database Browser
Search: [ help ]  
117562 (2005 EB25)
Classification: Main-belt Asteroid          SPK-ID: 2117562
Ephemeris | Orbit Diagram | Orbital Elements | Mission Design | Physical Parameters | Discovery Circumstances | Close-Approach Data ]

[ show orbit diagram ]
Orbital Elements at Epoch 2459000.5 (2020-May-31.0) TDB
Reference: JPL 16 (heliocentric ecliptic J2000)
 Element Value Uncertainty (1-sigma)   Units 
e .1036798739898604 4.2547e-08  
a 2.366432842874479 1.2404e-08 au
q 2.121081383919786 9.7496e-08 au
i 3.234887461976132 4.0969e-06 deg
node 84.09738590794625 7.9788e-05 deg
peri 128.7836960986936 8.232e-05 deg
M 32.17571854845418 1.9793e-05 deg
tp 2458881.659230115575
(2020-Feb-02.15923012)
7.3095e-05 TDB
period 1329.657241188428
3.64
1.0454e-05
2.862e-08
d
yr
n .2707464667196768 2.1287e-09 deg/d
Q 2.611784301829172 1.369e-08 au
  Orbit Determination Parameters
   # obs. used (total)      489  
   data-arc span      8143 days (22.29 yr)  
   first obs. used      1998-05-01  
   last obs. used      2020-08-16  
   planetary ephem.      DE431  
   SB-pert. ephem.      SB431-N16  
   condition code      0  
   norm. resid. RMS      .61599  
   source      ORB  
   producer      Otto Matic  
   solution date      2020-Nov-12 18:17:50  

Additional Information
 Earth MOID = 1.11636 au 
 Jupiter MOID = 2.35272 au 
 T_jup = 3.538 
[ show covariance matrix ]

Ephemeris | Orbit Diagram | Orbital Elements | Mission Design | Physical Parameters | Discovery Circumstances | Close-Approach Data ]

Physical Parameter Table
Parameter Symbol Value Units Sigma Reference Notes
absolute magnitude H 16.4   n/a MPO432680  

117562 (2005 EB25)          Discovered 2005-Mar-03 by CSS at Catalina
Reference: 20051019/Numbers.arcLast Updated: 2005-10-26

[ show close-approach data ]
Alternate Designations
 2005 EB25 = 1998 KE19 = 2003 WK70 
Ephemeris | Orbit Diagram | Orbital Elements | Mission Design | Physical Parameters | Discovery Circumstances | Close-Approach Data ]
ABOUT SSD CREDITS/AWARDS PRIVACY/COPYRIGHT GLOSSARY LINKS
FirstGov 2021-Jan-21 09:18 UT
(server date/time)  
NASA Home Page
Site Manager:   Ryan S. Park
Webmaster  Alan B. Chamberlin